Weather in Kanino

Russia / Ryazan Oblast     53°56′24″N   40°29′26″E
temp.,
°C
wind,
m/s
gust,
m/s
humid.,
%
clouds,
%
prec.,
mm/h
press.,
hPa
HPBL,
m
8 may, sat
sat800:00+7sse466777 0.0 101575
03:00+6sse41078100 0.0 1016180
06:00+8sse61381100 0.0 1014371
09:00+11sse71268100 0.0 1014830
12:00+14sse91258100 0.0 10111185
15:00+15sse81460100 0.0 10081576
18:00+12sse91786100 1.0 10061067
21:00+12s71492100 2.5 1004864
9 may, sun
sun900:00+11sw61192100 0.5 1004586
03:00+9ssw61194100 0.5 1005596
06:00+8ssw5991100 0.1 1006563
09:00+4nw71196100 0.4 1010662
12:00+6nw71083100 0.1 10141072
15:00+7nw71075100 0.2 10161202
18:00+7nw5974100 0.1 10191353
21:00+4wnw35865 0.1 102272
10 may, mon
mon1000:00+4nw378884 0.0 1022129
03:00+3nnw411870 0.0 1025207
06:00+4n5128223 0.0 1026303
09:00+10nne610580 0.0 10271245
12:00+13nne68454 0.0 10271659
15:00+14nne794413 0.0 10271646
18:00+12ne610584 0.0 1027808
21:00+7nne413691 0.0 1028251
11 may, tue
tue1100:00+5nne513745 0.0 1029233
03:00+5nne513725 0.0 1029277
06:00+6ne616774 0.0 1029447
09:00+11ene8126176 0.0 1028721
12:00+15ne81054100 0.0 1028861
15:00+16ene6958100 0.0 10271020
18:00+15ene6106519 0.0 1027672
21:00+11ne5138110 0.0 1026317
12 may, wed
wed1200:00+10ene6138074 0.0 1026329
03:00+9ene5118586 0.0 1026292
06:00+11e4108794 0.0 1026314
09:00+11ene3892100 0.6 1026262
12:00+16e697596 0.1 1025641
15:00+19ene8117098 0.1 1023961
18:00+16e6137999 0.1 1024501
21:00+15e61591100 0.8 1023482